Belmar-Farmingdale, NJ

5:50 AM EDT on October 15, 2019 (GMT -0400)
Allaire

Weather History for KBLM - September, 2019

Change the Weather History Date:

Monday, September 16, 2019

  Actual Average Record
Temperature  
Mean Temperature 72 °F -  
Max Temperature 82 °F 72 °F 89 °F (1998)
Min Temperature 64 °F 57 °F 44 °F (2007)
Cooling Degree Days 8    
Growing Degree Days 22 (Base 50)    
Moisture  
Dew Point 64 °F    
Average Humidity 81    
Maximum Humidity 97    
Minimum Humidity 52    
Precipitation  
Precipitation 0.00 in - - ()
Sea Level Pressure  
Sea Level Pressure 30.06 in    
Wind  
Wind Speed 4 mph ()    
Max Wind Speed 9 mph    
Max Gust Speed -    
Visibility 10.0 miles    
Events      
Averages and records for this station are not official NWS values.
T = Trace of Precipitation, MM = Missing Value Source: Averaged Metar Reports

Daily Weather History Graph

Daily Weather History Graph

Search for Another Location

Airport or City:

Astronomy

Sep. 16, 2019 Rise Set
Actual Time 6:38 AM EDT 7:04 PM EDT
Civil Twilight 6:10 AM EDT 7:31 PM EDT
Nautical Twilight 5:38 AM EDT 8:03 PM EDT
Astronomical Twilight 5:05 AM EDT 8:35 PM EDT
Moon 8:37 PM EDT (9/16) 8:42 AM EDT (9/16)
Length of Visible Light 13h 20m
Length of Day
12h 25m
Waning Gibbous, 94% of the Moon is Illuminated
Sep 16
Waning Gibbous
Sep 21
Last Quarter
Sep 28
New
Oct 5
First Quarter
Oct 13
Full

Hourly Weather History & Observations

Time (EDT) Temp. Heat Index Dew Point Humidity Pressure Visibility Wind Dir Wind Speed Gust Speed Precip Events Conditions
1:56 AM 66.0 °F - 64.9 °F 96% 30.09 in 9.0 mi WSW 3.5 mph - N/A   Clear
2:56 AM 66.0 °F - 64.9 °F 96% 30.07 in 10.0 mi WSW 5.8 mph - N/A   Clear
3:56 AM 64.9 °F - 64.0 °F 97% 30.08 in 10.0 mi WSW 6.9 mph - N/A   Clear
4:56 AM 64.0 °F - 63.0 °F 96% 30.07 in 10.0 mi West 3.5 mph - N/A   Overcast
5:56 AM 64.0 °F - 62.1 °F 93% 30.07 in 10.0 mi Calm Calm - N/A   Overcast
6:56 AM 64.0 °F - 61.0 °F 90% 30.09 in 10.0 mi WNW 3.5 mph - N/A   Overcast
7:56 AM 66.9 °F - 62.1 °F 84% 30.09 in 10.0 mi WNW 4.6 mph - N/A   Overcast
8:56 AM 70.0 °F - 62.1 °F 76% 30.09 in 10.0 mi NW 4.6 mph - N/A   Overcast
9:56 AM 73.9 °F - 64.0 °F 71% 30.09 in 10.0 mi NNW 4.6 mph - N/A   Overcast
10:56 AM 75.9 °F - 63.0 °F 64% 30.08 in 10.0 mi NNE 4.6 mph - N/A   Overcast
11:56 AM 81.0 °F 81.9 °F 62.1 °F 52% 30.06 in 10.0 mi Calm Calm - N/A   Partly Cloudy
12:56 PM 80.1 °F 81.2 °F 62.1 °F 54% 30.05 in 10.0 mi ESE 3.5 mph - N/A   Scattered Clouds
1:56 PM 75.9 °F - 64.0 °F 67% 30.05 in 10.0 mi East 8.1 mph - N/A   Overcast
2:56 PM 75.9 °F - 64.0 °F 67% 30.04 in 10.0 mi East 6.9 mph - N/A   Overcast
3:56 PM 75.0 °F - 64.0 °F 69% 30.02 in 10.0 mi ENE 9.2 mph - N/A   Clear
4:56 PM 73.0 °F - 64.0 °F 73% 30.02 in 10.0 mi ESE 6.9 mph - N/A   Partly Cloudy
5:56 PM 71.1 °F - 64.9 °F 81% 30.02 in 10.0 mi ESE 6.9 mph - N/A   Scattered Clouds
6:56 PM 70.0 °F - 66.0 °F 87% 30.03 in 10.0 mi East 4.6 mph - N/A   Partly Cloudy
7:56 PM 69.1 °F - 66.0 °F 90% 30.04 in 10.0 mi SE 3.5 mph - N/A   Clear
8:56 PM 68.0 °F - 66.0 °F 93% 30.04 in 10.0 mi Calm Calm - N/A   Clear
9:56 PM 66.9 °F - 64.9 °F 93% 30.05 in 10.0 mi Calm Calm - N/A   Clear
11:56 PM 68.0 °F - 66.9 °F 96% 30.06 in 10.0 mi ENE 4.6 mph - N/A   Overcast